Погода в Бедряже

Россия / Пермский край     56°34′25″N   55°53′01″E
темп.,
°C
ветер,
м/с
пор.,
м/с
влажн.,
%
обл.,
%
осадки,
мм/ч
давл.,
гПа
погр.,
м
20 апреля, вт
вт2023:000всв34490 0.0 103446
02:00−1в22500 0.0 103415
05:00−1в11514 0.0 103510
08:00+1всв004271 0.0 1036132
11:00+5з11315 0.0 1035913
14:00+7з11285 0.0 10341376
17:00+8сз222897 0.0 10331415
20:00+6ссз11424 0.0 103210
21 апреля, ср
ср2123:00+3сз11470 0.0 103310
02:00+2всв22510 0.0 103212
05:00+1ю11590 0.0 103310
08:00+3вюв22532 0.0 1033117
11:00+8ююв343995 0.0 1032772
14:00+11ююв4533100 0.0 10311205
17:00+12ююв5633100 0.0 10291234
20:00+8ю3651100 0.0 1029109
22 апреля, чт
чт2223:00+6юв3657100 0.0 102996
02:00+5ююв41261100 0.0 1029290
05:00+5ю61365100 0.1 1029589
08:00+6ю7136898 0.0 1030901
11:00+7ю71265100 0.0 10301123
14:00+9ююз81357100 0.1 10301466
17:00+7ююз61470100 0.6 10301263
20:00+6ююз71277100 0.0 10311090
23 апреля, пт
пт2323:00+4ююз51194100 0.1 1030736
02:00+5ююз51187100 0.1 1029791
05:00+4ю4897100 0.2 1029846
08:00+3ю4897100 0.9 1029689
11:00+4ю3897100 1.3 1029698
14:00+5ю3587100 0.1 1029826
17:00+6ююв2485100 0.1 1028522
20:00+6юв239099 0.0 102898
24 апреля, сб
сб2423:00+4в2394100 0.0 102746
02:00+3св3494100 0.0 102573
05:00+3св3795100 0.0 1023143
08:00+5всв4889100 0.0 1021302
11:00+6в2389100 0.0 1020319
14:00+6всв2394100 0.2 1018161
17:00+5в2497100 1.3 1017135
20:00+6в3794100 0.8 1016310